Regional Weather Roundup
Issued by NWS

Home | Current Version | Previous Version | Graphics & Text | Print | Product List | Glossary On
Versions: 1 2 3 4 5 6 7 8 9 10 11 12 13 14 15 16 17 18 19 20 21 22 23 24 25 26 27 28 29 30 31 32 33 34 35 36 37 38 39 40 41 42 43 44 45 46 47 48 49 50
000
ASUS43 KLMK 300910
RWRKY
KENTUCKY REGIONAL WEATHER ROUNDUP
NATIONAL WEATHER SERVICE LOUISVILLE KY
500 AM EDT WED JUL 30 2014

NOTE "FAIR" INDICATES FEW OR NO CLOUDS BELOW 12,000 FEET
WITH NO SIGNIFICANT WEATHER AND/OR OBSTRUCTIONS TO VISIBILITY.

KYZ001>023-026-027-061>063-070>075-301000-
WESTERN AND SOUTH CENTRAL KENTUCKY

CITY           SKY/WX    TMP DP  RH WIND       PRES   REMARKS
PADUCAH        CLEAR     59  55  87 CALM      30.08S
HENDERSON      CLEAR     57  54  88 SW3       30.07S
OWENSBORO      CLEAR     58  56  93 CALM      30.08F
HOPKINSVILLE   CLEAR     56  55  98 SW6       30.09S
BOWLING GREEN  CLEAR     58  54  86 CALM      30.09F
GLASGOW        CLEAR     56  56 100 CALM      30.09F
$$

KYZ024-025-028>034-038-045-046-053-301000-
NORTH CENTRAL KENTUCKY

CITY           SKY/WX    TMP DP  RH WIND       PRES   REMARKS
LOUISVILLE/SDF CLEAR     64  58  80 SW7       30.06F
LOUISVILLE/LOU CLEAR     62  59  90 CALM      30.07F
FORT KNOX      CLEAR     57  55  94 CALM      30.06F
$$

KYZ035>037-039>044-047>052-055>060-089>105-301000-
NORTHEAST KENTUCKY

CITY           SKY/WX    TMP DP  RH WIND       PRES   REMARKS
LEXINGTON      CLEAR     58  54  86 S7        30.09R
COVINGTON      PTCLDY    59  56  89 S3        30.05S
FRANKFORT      CLEAR     57  54  89 CALM      30.07S
$$

KYZ054-064>069-076>088-106>120-301000-
SOUTHEAST KENTUCKY

CITY           SKY/WX    TMP DP  RH WIND       PRES   REMARKS
JACKSON        CLEAR     55  52  89 CALM      30.10F
LONDON         CLEAR     55  52  89 CALM      30.11F
SOMERSET       MOCLDY    54  54 100 CALM      30.12S FOG
MIDDLESBORO    CLOUDY    54  54 100 CALM      30.12F FOG
MONTICELLO     SUNNY     53  53 100 CALM      30.12F
$$



USA.gov is the U.S. government's official web portal to all federal, state and local government web resources and services.